EW6230 Weather Reports


Display with metric or nautical units.
time (UTC)temp
F
wind
direction
speed
MPH
gust
MPH
rain 1hr
in
rain 24hr
in
rain mn
in
humidity
%
barometer
mb
20211130051626 46 230 0.0 0.0 0.00 0.00 0.00 92 1017.3
20211130050125 46 260 0.0 0.0 0.00 0.00 0.00 92 1017.3
20211130044620 46 263 0.0 0.0 0.00 0.00 0.00 92 1017.3
20211130043108 46 264 0.0 0.0 0.00 0.00 0.00 92 1017.4
20211130041626 46 266 0.0 0.0 0.00 0.00 0.00 92 1017.2
20211130040129 46 274 0.0 0.0 0.00 0.00 0.00 92 1017.3
20211130034622 46 277 0.0 0.0 0.00 0.00 0.00 92 1017.8
20211130033104 46 277 0.0 0.0 0.00 0.00 0.00 92 1018.0
20211130031603 47 277 0.0 0.0 0.00 0.00 0.00 92 1018.4
20211130030121 47 277 0.0 0.0 0.00 0.00 0.00 92 1018.6
20211130024555 47 277 0.0 0.0 0.00 0.00 0.00 92 1018.3
20211130023120 47 277 0.0 0.0 0.00 0.00 0.00 92 1018.4
20211130021621 48 277 0.0 0.0 0.00 0.00 0.00 91 1018.6
20211130020111 48 277 0.0 0.0 0.00 0.00 0.00 92 1018.6
20211130014706 48 283 0.0 0.0 0.00 0.00 0.00 92 1018.7
20211130013126 48 251 0.0 0.0 0.00 0.00 0.00 91 1018.9
20211130011550 48 251 0.0 0.0 0.00 0.00 0.00 91 1019.0
20211130010049 48 251 0.0 0.0 0.00 0.00 0.00 91 1019.3
20211130004652 48 263 0.0 0.0 0.00 0.00 0.00 91 1019.0
20211130003058 49 302 0.0 0.0 0.00 0.00 0.00 91 1018.5
20211130001604 49 302 0.0 0.0 0.00 0.00 0.00 91 1018.4
20211130000120 49 302 0.0 0.0 0.00 0.00 0.00 91 1018.4
20211129234614 49 302 0.0 0.0 0.00 0.00 0.00 91 1018.5
20211129233120 50 302 0.0 0.0 0.00 0.00 0.00 91 1018.6
20211129231620 51 302 0.0 0.0 0.00 0.00 0.00 91 1019.1
20211129230057 50 302 0.0 0.0 0.00 0.00 0.00 91 1019.3
20211129224542 51 302 0.0 0.0 0.00 0.00 0.00 91 1019.2
20211129223038 51 302 0.0 0.0 0.00 0.00 0.00 91 1019.3
20211129221541 51 6 0.0 0.0 0.00 0.00 0.00 91 1019.0
20211129220121 52 231 0.0 0.0 0.00 0.00 0.00 91 1019.1
20211129214602 53 231 0.0 0.0 0.00 0.00 0.00 91 1019.1
20211129213142 53 231 0.0 0.0 0.00 0.00 0.00 91 1019.2
20211129211554 54 163 0.0 0.0 0.00 0.00 0.00 91 1019.0
20211129210123 53 164 0.0 0.0 0.00 0.00 0.00 92 1019.2
20211129204613 53 164 0.0 0.0 0.00 0.00 0.00 92 1019.1
20211129203107 52 162 0.0 0.0 0.00 0.00 0.00 92 1019.1
20211129201537 52 219 0.0 0.0 0.00 0.00 0.00 92 1019.3
20211129200042 52 219 0.0 0.0 0.00 0.00 0.00 92 1019.7
20211129194612 52 219 0.0 0.0 0.00 0.00 0.00 92 1019.9
20211129193104 52 239 0.0 0.0 0.00 0.00 0.00 92 1019.9
20211129191553 52 239 0.0 0.0 0.00 0.00 0.00 93 1020.0
20211129190040 51 239 0.0 0.0 0.00 0.00 0.00 93 1020.2
20211129184525 51 6 0.0 0.0 0.00 0.00 0.00 93 1019.8
20211129183035 50 6 0.0 0.0 0.00 0.00 0.00 93 1019.9
20211129181514 49 6 0.0 0.0 0.00 0.00 0.00 93 1019.8
20211129180017 49 6 0.0 0.0 0.00 0.00 0.00 93 1019.6
20211129174515 49 6 0.0 0.0 0.00 0.00 0.00 93 1019.7
20211129173024 48 283 0.0 0.0 0.00 0.00 0.00 93 1019.3
20211129171508 47 283 0.0 0.0 0.00 0.00 0.00 93 1019.3
20211129170028 46 283 0.0 0.0 0.00 0.00 0.00 93 1019.1
20211129164509 46 283 0.0 0.0 0.00 0.00 0.00 92 1018.8
20211129163024 46 283 0.0 0.0 0.00 0.00 0.00 92 1018.6
20211129161508 46 283 0.0 0.0 0.00 0.00 0.00 93 1018.7
20211129160003 47 283 0.0 0.0 0.00 0.00 0.00 93 1019.0
20211129154500 47 255 0.0 0.0 0.00 0.00 0.00 93 1018.8
20211129153135 47 255 0.0 0.0 0.00 0.00 0.00 93 1018.8
20211129151743 46 255 0.0 0.0 0.00 0.00 0.00 93 1018.6
20211129150212 46 255 0.0 0.0 0.00 0.00 0.00 92 1018.6
20211129144708 46 240 0.0 0.0 0.00 0.00 0.00 92 1018.3
20211129143108 46 231 0.0 0.0 0.00 0.00 0.00 92 1017.9
20211129141613 47 294 0.0 0.0 0.00 0.00 0.00 92 1017.5
20211129140101 47 294 0.0 0.0 0.00 0.00 0.00 92 1017.3
20211129134556 47 258 0.0 0.0 0.00 0.00 0.00 93 1017.6
20211129133133 48 258 0.0 0.0 0.00 0.00 0.00 93 1017.5
20211129131634 48 258 0.0 0.0 0.00 0.00 0.00 93 1017.4
20211129130247 48 258 0.0 0.0 0.00 0.00 0.00 92 1017.5
20211129124616 48 258 0.0 0.0 0.00 0.00 0.00 92 1017.5
20211129123053 48 268 0.0 0.0 0.00 0.00 0.00 92 1017.4
20211129121630 48 250 0.0 0.0 0.00 0.00 0.00 92 1017.2
20211129120110 48 250 0.0 0.0 0.00 0.00 0.00 92 1017.1
20211129114631 48 250 0.0 0.0 0.00 0.00 0.00 92 1017.1
20211129113041 48 250 0.0 0.0 0.00 0.00 0.00 92 1016.9
20211129111554 48 250 0.0 0.0 0.00 0.00 0.00 92 1017.2
20211129110127 48 250 0.0 0.0 0.00 0.00 0.00 92 1017.4
20211129104611 48 250 0.0 0.0 0.00 0.00 0.00 92 1017.7
20211129103035 48 250 0.0 0.0 0.00 0.00 0.00 92 1017.7
20211129101610 48 250 0.0 0.0 0.00 0.00 0.00 92 1018.0
20211129100126 49 250 0.0 0.0 0.00 0.00 0.00 92 1017.9
20211129094603 49 250 0.0 0.0 0.00 0.00 0.00 92 1017.8
20211129093050 49 250 0.0 0.0 0.00 0.00 0.00 92 1017.8
20211129091608 49 250 0.0 0.0 0.00 0.00 0.00 92 1017.9
20211129090023 50 250 0.0 0.0 0.00 0.00 0.00 92 1017.9
20211129084518 50 250 0.0 0.0 0.00 0.00 0.00 92 1017.7
20211129083024 49 250 0.0 0.0 0.00 0.00 0.00 92 1017.8
20211129081509 49 250 0.0 0.0 0.00 0.00 0.00 92 1017.8
20211129080012 49 250 0.0 0.0 0.00 0.00 0.00 92 1018.0
20211129074504 49 250 0.0 0.0 0.00 0.00 0.00 92 1018.1
20211129073015 49 250 0.0 0.0 0.00 0.00 0.00 92 1017.9
20211129071512 49 250 0.0 0.0 0.00 0.00 0.00 93 1017.9
20211129070008 49 250 0.0 0.0 0.00 0.00 0.00 92 1017.9
20211129064505 48 250 0.0 0.0 0.00 0.00 0.00 92 1017.8
20211129063149 48 250 0.0 0.0 0.00 0.00 0.00 92 1017.8
20211129061640 48 250 0.0 0.0 0.00 0.00 0.00 92 1017.7
20211129060143 48 250 0.0 0.0 0.00 0.00 0.00 92 1017.6
20211129054632 49 297 0.0 0.0 0.00 0.00 0.00 92 1017.2
20211129053225 49 297 0.0 0.0 0.00 0.00 0.00 92 1017.4